LFBPLFMP

Guest
Details From LFBP - Pau Pyrenees
To LFMP - Rivesaltes
Flight Number -
Tags generated
Created
Modified
Stats Distance 150 nm / 277 km
Max Altitude 9,400 ft / 2,865 m
Waypoints 3
Social Downloads 1
Likes 0
Share VATSIM

Download

Looking for another format? Having issues loading an existing format? Contact us
Advertisement - Login to hide

Notes

Basic altitude profile: - Ascent Rate: 2500ft/min - Ascent Speed: 250kts - Cruise Altitude: 35000ft - Cruise Speed: 420kts - Descent Rate: 1500ft/min - Descent Speed: 250kts

Route

LFBP GAI57 LFMP

ID Type Via Altitude Latitude Longitude Leg Dist Tot Dist Heading (true) Name
O LFBP APT - 0 ft / 0 m 43.38108˚ -0.42075˚ - 0 nm - Pau Pyrenees
GAI57 FIX - 9,400 ft / 2,865 m 43.00000˚ 1.93611˚ 105 nm 105 nm 102° / 103° -
O LFMP APT - 0 ft / 0 m 42.74049˚ 2.87059˚ 43 nm 149 nm 110° / 111° Rivesaltes

Altitude Profile

Advertisement - Login to hide

LFBP

Details ICAO LFBP (PUF)
Name Pau Pyrenees
Region France
Timezone Europe/Paris (UTC+2.0)
Stats Elevation 616 ft / 188 m (AMSL)
Location 43.381078° -0.420752°
Runways 1
Magnetic Variation 0.147° E

METAR

LFBP 221000Z AUTO 29007KT 230V340 CAVOK 20/10 Q1015 BECMG SCT030TCU

Decode

TAF

TAF LFBP 220500Z 2206/2306 VRB03KT 9999 SCT025 BECMG 2210/2212 SCT030TCU PROB30 TEMPO 2212/2219 30007KT 4000 SHRA BKN030TCU PROB30 TEMPO 2301/2306 BKN005

Decode

Departure Runways

ID Width Length Bearing (true) Bearing (mag) Surface Threshold Offset Overrun Length
13 148 ft / 45 m 8,191 ft / 2,497 m 125.89° 125.74° Asphalt 0 ft / 0 m 0 ft / 0 m
31 148 ft / 45 m 8,191 ft / 2,497 m 305.90° 305.75° Asphalt 0 ft / 0 m 0 ft / 0 m

LFMP

Details ICAO LFMP (PGF)
Name Rivesaltes
Region France
Timezone Europe/Paris (UTC+2.0)
Stats Elevation 143 ft / 44 m (AMSL)
Location 42.740488° 2.870594°
Runways 2
Magnetic Variation 1.041° E

METAR

LFMP 221000Z AUTO VRB05KT 9999 SCT044 23/13 Q1013

Decode

TAF

TAF TAF LFMP 220454Z 2204/2303 CNL

Decode

Destination Runways

ID Width Length Bearing (true) Bearing (mag) Surface Threshold Offset Overrun Length
13 66 ft / 20 m 4,231 ft / 1,290 m 127.54° 126.50° Asphalt 492 ft / 150 m 0 ft / 0 m
15 148 ft / 45 m 8,189 ft / 2,496 m 148.38° 147.34° Asphalt 0 ft / 0 m 230 ft / 70 m
31 66 ft / 20 m 4,231 ft / 1,290 m 307.55° 306.51° Asphalt 1,148 ft / 350 m 0 ft / 0 m
33 148 ft / 45 m 8,189 ft / 2,496 m 328.39° 327.35° Asphalt 558 ft / 170 m 230 ft / 70 m

Approach Navaids

Runway Type Ident Frequency Range Bearing (true) Bearing (mag) Slope Elevation
33 Localiser PL 111.75 MHz 18 nm / 33 km 328.30° 327.26° - 124 ft / 38 m (AMSL)
33 Glidescope PL 111.75 MHz 10 nm / 19 km 328.38° 327.34° 3.00° 124 ft / 38 m (AMSL)
33 DME PL 111.75 MHz 18 nm / 33 km - - - 183 ft / 56 m (AMSL)

Popular Alternatives